DW7040 Weather Reports


time (UTC)temp
F
wind
direction
speed
knots
gust
knots
rain 1hr
in
rain 24hr
in
rain mn
in
humidity
%
barometer
mb
20260508090034 0 205 1.7 3.5 0.00 0.00 0.00 1007.0
20260508084530 0 205 1.7 4.3 0.00 0.00 0.00 1007.0
20260508083025 0 205 2.6 3.5 0.00 0.00 0.00 1006.9
20260508081603 0 205 0.9 2.6 0.00 0.00 0.00 1006.8
20260508080042 0 205 0.0 1.7 0.00 0.00 0.00 1006.8
20260508074510 0 205 0.9 2.6 0.00 0.00 0.00 1006.6
20260508073005 0 205 0.9 2.6 0.00 0.00 0.00 1006.4
20260508071550 0 205 0.9 2.6 0.00 0.00 0.00 1006.3
20260508070033 0 205 0.9 1.7 0.00 0.00 0.00 1006.3
20260508064527 0 205 0.9 2.6 0.00 0.00 0.00 1006.2
20260508063101 0 205 0.0 4.3 0.00 0.00 0.00 1006.1
20260508061556 0 205 3.5 4.3 0.00 0.00 0.00 1005.9
20260508060002 0 204 0.9 2.6 0.00 0.00 0.00 1005.9
20260508054600 0 204 1.7 4.3 0.00 0.00 0.00 1005.9
20260508053057 0 205 0.9 1.7 0.00 0.00 0.00 1005.7
20260508051548 0 204 0.9 1.7 0.00 0.00 0.00 1005.7
20260508050044 0 205 0.0 2.6 0.00 0.00 0.00 1005.6
20260508044600 0 205 1.7 2.6 0.00 0.00 0.00 1005.5
20260508043019 0 205 0.9 2.6 0.00 0.00 0.00 1005.4
20260508041541 0 205 1.7 4.3 0.00 0.00 0.00 1005.4
20260508041506 0 205 1.7 4.3 0.00 0.00 0.00 1005.4
20260508034535 0 205 0.9 3.5 0.00 0.00 0.00 1005.2
20260508030029 0 204 1.7 3.5 0.00 0.00 0.00 1005.4
20260508023031 0 204 1.7 2.6 0.00 0.00 0.00 1005.6
20260508021554 0 203 0.9 0.9 0.00 0.00 0.00 1005.5
20260508020014 0 203 0.9 1.7 0.00 0.00 0.00 1005.5
20260508010043 0 204 0.9 1.7 0.00 0.00 0.00 1005.4
20260508004508 0 204 0.9 1.7 0.00 0.00 0.00 1005.5
20260508003047 0 203 1.7 2.6 0.00 0.00 0.00 1005.6
20260508001546 0 204 1.7 3.5 0.00 0.00 0.00 1005.5
20260508000037 0 204 1.7 3.5 0.00 0.00 0.00 1005.6
20260507234529 0 203 1.7 4.3 0.00 0.00 0.00 1005.5
20260507233044 0 204 2.6 3.5 0.00 0.00 0.00 1005.6
20260507231549 0 203 2.6 4.3 0.00 0.00 0.00 1005.5
20260507230022 0 204 0.9 1.7 0.00 0.00 0.00 1005.5
20260507224521 0 203 0.0 1.7 0.00 0.00 0.00 1005.4
20260507223101 0 204 0.0 0.9 0.00 0.00 0.00 1005.4
20260507221552 0 203 0.9 1.7 0.00 0.00 0.00 1005.4
20260507220047 0 204 0.9 1.7 0.00 0.00 0.00 1005.3
20260507214522 0 203 0.9 4.3 0.00 0.00 0.00 1005.2
20260507213025 0 204 1.7 4.3 0.00 0.00 0.00 1005.3
20260507211514 0 204 0.9 2.6 0.00 0.00 0.00 1005.1
20260507210053 0 204 1.7 4.3 0.00 0.00 0.00 1005.1
20260507204556 0 204 0.9 3.5 0.00 0.00 0.00 1005.0
20260507203057 0 203 0.9 3.5 0.00 0.00 0.00 1005.0
20260507201553 0 202 1.7 6.1 0.00 0.00 0.00 1004.8
20260507200028 0 202 3.5 5.2 0.00 0.00 0.00 1004.7
20260507194544 0 202 3.5 6.1 0.00 0.00 0.00 1004.6
20260507193033 0 202 5.2 8.7 0.00 0.00 0.00 1004.5
20260507191523 0 202 4.3 7.8 0.00 0.00 0.00 1004.5
20260507190008 0 202 3.5 7.8 0.00 0.00 0.00 1004.5
20260507184534 0 201 5.2 8.7 0.00 0.00 0.00 1004.4
20260507183037 0 201 6.1 13.0 0.00 0.00 0.00 1004.2
20260507181529 0 198 7.8 12.2 0.00 0.00 0.00 1004.2
20260507180035 0 198 7.0 13.0 0.00 0.00 0.00 1004.2
20260507174520 0 198 3.5 8.7 0.00 0.00 0.00 1004.1
20260507173049 0 198 7.0 13.9 0.00 0.00 0.00 1004.2
20260507171517 0 200 5.2 12.2 0.00 0.00 0.00 1004.2
20260507170010 0 200 9.6 13.9 0.00 0.00 0.00 1004.2
20260507164501 0 198 7.0 13.9 0.00 0.00 0.00 1004.2
20260507163016 0 197 7.0 13.0 0.00 0.00 0.00 1004.2
20260507161550 0 197 7.0 13.0 0.00 0.00 0.00 1004.2
20260507160017 0 197 7.8 12.2 0.00 0.00 0.00 1004.1
20260507154510 0 198 7.0 11.3 0.00 0.00 0.00 1004.2
20260507153013 0 197 8.7 13.0 0.00 0.00 0.00 1004.1
20260507151508 0 197 7.8 12.2 0.00 0.00 0.00 1004.2
20260507150002 0 197 7.8 11.3 0.00 0.00 0.00 1004.1
20260507144524 0 197 7.0 9.6 0.00 0.00 0.00 1004.2
20260507143020 0 197 4.3 10.4 0.00 0.00 0.00 1004.4
20260507141519 0 200 3.5 9.6 0.00 0.00 0.00 1004.5
20260507140051 0 200 4.3 9.6 0.00 0.00 0.00 1004.5
20260507134554 0 198 4.3 11.3 0.00 0.00 0.00 1004.5
20260507133042 0 197 6.1 11.3 0.00 0.00 0.00 1004.5
20260507131540 0 198 3.5 11.3 0.00 0.00 0.00 1004.6
20260507130033 0 198 5.2 7.8 0.00 0.00 0.00 1004.6
20260507124527 0 198 4.3 9.6 0.00 0.00 0.00 1004.6
20260507123040 0 198 6.1 11.3 0.00 0.00 0.00 1004.6
20260507121535 0 198 7.8 11.3 0.00 0.00 0.00 1004.6
20260507120031 0 198 7.8 13.0 0.00 0.00 0.00 1004.8
20260507114531 0 198 4.3 10.4 0.00 0.00 0.00 1004.7
20260507113023 0 197 7.8 13.0 0.00 0.00 0.00 1004.8
20260507111521 0 198 7.8 12.2 0.00 0.00 0.00 1004.7
20260507110002 0 200 6.1 10.4 0.00 0.00 0.00 1004.7
20260507104506 0 197 0.9 6.1 0.00 0.00 0.00 1004.8
20260507103000 0 200 5.2 7.8 0.00 0.00 0.00 1005.0
20260507101601 0 198 4.3 8.7 0.00 0.00 0.00 1004.9
20260507100004 0 197 4.3 7.0 0.00 0.00 0.00 1005.0
20260507094541 0 198 3.5 6.1 0.00 0.00 0.00 1005.0
20260507093040 0 198 3.5 6.1 0.00 0.00 0.00 1004.9
20260507091540 0 197 4.3 7.0 0.00 0.00 0.00 1004.8